カタログに戻る

TITAN 34D TRANSTAGE DEB

運用中HEO
NORAD 23038·DEBRIS·🇺🇸 United States

打ち上げ Sep 2, 1988 から Cape Canaveral Space Force Station

Loading…

次のパス (今後24時間)

TLE

最新Source: Space-Track

元期: Sep 13, 2026, 06:19 UTC

1 23038U 88077H   26256.26329544  .00005700  00000-0  40362-2 0  9991
2 23038  26.9728 335.6436 6802970 160.6914 249.0887  2.85937006 69150

AllMySatでTITAN 34D TRANSTAGE DEBをリアルタイム追跡

Download on the App Store